Location: La Fredeussais
(48.1780°N, 1.3980°W)
Time: 09:31:44
(UTC+00:00)

Terra - Pass Details

Date: 09 May 2021
Orbit: 701 x 703 km, 98.2° (Epoch: 13 June)

Event Time Altitude Azimuth Distance (km) Brightness Sun altitude
Exits shadow 23:24:10 13° 250° (WSW) 1,972 4.0 -23.7°
Maximum altitude 23:25:44 15° 272° (W) 1,861 4.1 -23.7°
Drops below altitude 10° 23:28:26 10° 306° (NW) 2,180 4.9 -23.8°
Sets 23:31:42 0° 330° (NNW) 3,104 6.3 -23.9°
